This demonstration page uses our WeatherBlox Daily Observations layout. Learn more.

Left ArrowRight Arrow

44.8408, -93.29828

Hourly Observations for November 25, 2019

Temp ( °F °C ) Dew Point ( °F °C ) Humidity (%) Winds ( mph kmh ) Pressure ( in mb ) Visibility ( mi km ) Precip ( " mm )
12:53 am 00:53 Clear 40 4.4 32 0 73 73 S 6 9 29.44 997 10 16 0.00 0.00
1:53 am 01:53 Mostly Cloudy 39 3.9 32 0 76 76 S 5 7 29.44 997 10 16 0.00 0.00
2:53 am 02:53 Mostly Cloudy 40 4.4 32 0 73 73 SW 3 6 29.43 997 10 16 0.00 0.00
3:53 am 03:53 Cloudy 42 5.6 32 0 68 68 WSW 10 17 29.43 997 10 16 0.00 0.00
4:53 am 04:53 Mostly Clear 39 3.9 31 -0.6 73 73 WSW 7 11 29.44 997 10 16 0.00 0.00
5:53 am 05:53 Clear 39 3.9 31 -0.6 73 73 WSW 9 15 29.45 997 10 16 0.00 0.00
6:53 am 06:53 Mostly Clear 37 2.8 30 -1.1 76 76 SW 7 11 29.47 998 10 16 0.00 0.00
7:53 am 07:53 Mostly Sunny 38 3.3 31 -0.6 76 76 WSW 9 15 29.48 998 10 16 0.00 0.00
8:53 am 08:53 Mostly Sunny 40 4.4 32 0 73 73 WSW 14 22 29.49 999 10 16 0.00 0.00
9:53 am 09:53 Mostly Cloudy 41 5 31 -0.6 67 67 WSW 13 20 29.50 999 10 16 0.00 0.00
10:53 am 10:53 Mostly Sunny 44 6.7 30 -1.1 58 58 W 16 26 29.50 999 10 16 0.00 0.00
11:53 am 11:53 Mostly Cloudy 45 7.2 29 -1.7 54 54 W 22 35 29.49 999 10 16 0.00 0.00
12:53 pm 12:53 Cloudy 44 6.7 30 -1.1 58 58 W 20 31 29.48 998 10 16 0.00 0.00
1:53 pm 13:53 Cloudy 44 6.7 30 -1.1 58 58 W 14 22 29.49 999 10 16 0.00 0.00
2:53 pm 14:53 Cloudy 43 6.1 30 -1.1 60 60 W 20 31 29.51 999 10 16 0.00 0.00
3:50 pm 15:50 Cloudy 43 6 30 -1 61 61 W 20 31 29.56 1001 10 16 0.00 0.00
3:53 pm 15:53 Cloudy 42 5.6 31 -0.6 65 65 W 16 26 29.53 1000 10 16 0.00 0.00
4:53 pm 16:53 Cloudy 41 5 31 -0.6 67 67 W 16 26 29.56 1001 10 16 0.00 0.00
5:02 pm 17:02 Cloudy 41 5 31 -0.6 67 67 W 13 20 29.59 1002 10 16 0.00 0.00
5:53 pm 17:53 Cloudy 40 4.4 31 -0.6 70 70 WNW 15 24 29.60 1003 10 16 0.00 0.00
6:53 pm 18:53 Cloudy 40 4.4 29 -1.7 65 65 WNW 17 28 29.64 1004 10 16 0.00 0.00
7:53 pm 19:53 Cloudy 39 3.9 29 -1.7 67 67 NW 16 26 29.67 1005 10 16 0.00 0.00
8:53 pm 20:53 Cloudy 39 3.9 29 -1.7 67 67 NW 13 20 29.70 1006 10 16 0.00 0.00
9:11 pm 21:11 Cloudy 39 3.9 29 -1.7 67 67 WNW 10 17 29.74 1007 10 16 0.00 0.00
9:21 pm 21:21 Cloudy 39 3.9 29 -1.7 67 67 W 9 15 29.74 1007 10 16 0.00 0.00
9:53 pm 21:53 Cloudy 39 3.9 30 -1.1 70 70 WNW 13 20 29.74 1007 10 16 0.00 0.00
10:09 pm 22:09 Cloudy 38 3.3 29 -1.7 70 70 NW 14 22 29.77 1008 10 16 0.00 0.00
10:33 pm 22:33 Cloudy 38 3.3 29 -1.7 70 70 NW 15 24 29.77 1008 10 16 0.00 0.00
10:53 pm 22:53 Cloudy 38 3.3 28 -2.2 68 68 NW 12 19 29.76 1008 10 16 0.00 0.00
11:53 pm 23:53 Cloudy 38 3.3 28 -2.2 68 68 NW 10 17 29.77 1008 10 16 0.00 0.00

Powered by AerisWeather